| time (UTC) | temp F | wind direction | speed MPH | gust MPH | rain 1hr in | rain 24hr in | rain mn in | humidity % | barometer mb |
| 20260509053513 | 46 | 276 | 2.0 | 4.0 | 0.00 | 0.00 | 0.00 | 50 | 1014.6 |
| 20260509053048 | 46 | 275 | 2.0 | 4.0 | 0.00 | 0.00 | 0.00 | 51 | 1014.6 |
| 20260509052511 | 46 | 273 | 2.0 | 3.0 | 0.00 | 0.00 | 0.00 | 51 | 1014.6 |
| 20260509052015 | 46 | 273 | 2.0 | 3.0 | 0.00 | 0.00 | 0.00 | 51 | 1014.6 |
| 20260509051530 | 46 | 0 | 0.0 | 0.0 | 0.00 | 0.00 | 0.00 | 51 | 1014.5 |
| 20260509051011 | 46 | 0 | 0.0 | 0.0 | 0.00 | 0.00 | 0.00 | 51 | 1014.6 |
| 20260509050511 | 46 | 0 | 0.0 | 0.0 | 0.00 | 0.00 | 0.00 | 51 | 1014.6 |
| 20260509050029 | 46 | 0 | 0.0 | 0.0 | 0.00 | 0.00 | 0.00 | 52 | 1014.6 |
| 20260509045514 | 46 | 0 | 0.0 | 2.0 | 0.00 | 0.00 | 0.00 | 52 | 1014.6 |
| 20260509045011 | 46 | 0 | 0.0 | 2.0 | 0.00 | 0.00 | 0.00 | 52 | 1014.6 |
| 20260509044530 | 46 | 271 | 1.0 | 2.0 | 0.00 | 0.00 | 0.00 | 51 | 1014.6 |
| 20260509044015 | 46 | 271 | 1.0 | 2.0 | 0.00 | 0.00 | 0.00 | 51 | 1014.6 |
| 20260509043513 | 46 | 0 | 0.0 | 2.0 | 0.00 | 0.00 | 0.00 | 52 | 1014.6 |
| 20260509043040 | 46 | 0 | 0.0 | 2.0 | 0.00 | 0.00 | 0.00 | 51 | 1014.6 |
| 20260509042511 | 46 | 0 | 0.0 | 3.0 | 0.00 | 0.00 | 0.00 | 51 | 1014.6 |
| 20260509042013 | 46 | 271 | 1.0 | 3.0 | 0.00 | 0.00 | 0.00 | 52 | 1014.6 |
| 20260509041530 | 46 | 271 | 2.0 | 3.0 | 0.00 | 0.00 | 0.00 | 51 | 1014.5 |
| 20260509041013 | 46 | 271 | 1.0 | 3.0 | 0.00 | 0.00 | 0.00 | 51 | 1014.6 |
| 20260509040511 | 46 | 271 | 1.0 | 3.0 | 0.00 | 0.00 | 0.00 | 52 | 1014.5 |
| 20260509040029 | 46 | 275 | 1.0 | 3.0 | 0.00 | 0.00 | 0.00 | 51 | 1014.4 |
| 20260509035514 | 46 | 277 | 1.0 | 3.0 | 0.00 | 0.00 | 0.00 | 51 | 1014.4 |
| 20260509035017 | 46 | 0 | 0.0 | 3.0 | 0.00 | 0.00 | 0.00 | 50 | 1014.3 |
| 20260509034530 | 46 | 0 | 0.0 | 3.0 | 0.00 | 0.00 | 0.00 | 50 | 1014.1 |
| 20260509034014 | 46 | 0 | 1.0 | 3.0 | 0.00 | 0.00 | 0.00 | 50 | 1014.1 |
| 20260509033515 | 46 | 0 | 0.0 | 3.0 | 0.00 | 0.00 | 0.00 | 50 | 1014.1 |
| 20260509033030 | 46 | 284 | 1.0 | 4.0 | 0.00 | 0.00 | 0.00 | 50 | 1014.1 |
| 20260509032511 | 46 | 290 | 1.0 | 4.0 | 0.00 | 0.00 | 0.00 | 50 | 1014.1 |
| 20260509032014 | 46 | 293 | 1.0 | 4.0 | 0.00 | 0.00 | 0.00 | 49 | 1014.1 |
| 20260509031531 | 46 | 5 | 1.0 | 3.0 | 0.00 | 0.00 | 0.00 | 50 | 1014.0 |
| 20260509031014 | 46 | 5 | 1.0 | 3.0 | 0.00 | 0.00 | 0.00 | 49 | 1013.9 |
| 20260509030516 | 46 | 51 | 2.0 | 3.0 | 0.00 | 0.00 | 0.00 | 48 | 1013.9 |
| 20260509030030 | 46 | 51 | 2.0 | 3.0 | 0.00 | 0.00 | 0.00 | 49 | 1013.9 |
| 20260509025514 | 47 | 51 | 2.0 | 3.0 | 0.00 | 0.00 | 0.00 | 49 | 1013.8 |
| 20260509025014 | 47 | 52 | 2.0 | 3.0 | 0.00 | 0.00 | 0.00 | 49 | 1013.8 |
| 20260509024530 | 47 | 0 | 0.0 | 2.0 | 0.00 | 0.00 | 0.00 | 49 | 1013.7 |
| 20260509024011 | 47 | 0 | 0.0 | 2.0 | 0.00 | 0.00 | 0.00 | 51 | 1013.7 |
| 20260509023511 | 47 | 0 | 0.0 | 2.0 | 0.00 | 0.00 | 0.00 | 49 | 1013.6 |
| 20260509023030 | 47 | 0 | 0.0 | 3.0 | 0.00 | 0.00 | 0.00 | 49 | 1013.6 |
| 20260509022512 | 47 | 51 | 0.0 | 4.0 | 0.00 | 0.00 | 0.00 | 49 | 1013.6 |
| 20260509022011 | 46 | 51 | 2.0 | 4.0 | 0.00 | 0.00 | 0.00 | 51 | 1013.5 |
| 20260509021532 | 46 | 51 | 2.0 | 4.0 | 0.00 | 0.00 | 0.00 | 51 | 1013.4 |
| 20260509021012 | 46 | 50 | 3.0 | 4.0 | 0.00 | 0.00 | 0.00 | 49 | 1013.4 |
| 20260509020511 | 46 | 49 | 3.0 | 5.0 | 0.00 | 0.00 | 0.00 | 51 | 1013.3 |
| 20260509020029 | 46 | 49 | 3.0 | 5.0 | 0.00 | 0.00 | 0.00 | 50 | 1013.2 |
| 20260509015514 | 46 | 41 | 3.0 | 5.0 | 0.00 | 0.00 | 0.00 | 51 | 1013.2 |
| 20260509015011 | 46 | 41 | 2.0 | 4.0 | 0.00 | 0.00 | 0.00 | 52 | 1013.1 |
| 20260509014532 | 46 | 32 | 2.0 | 5.0 | 0.00 | 0.00 | 0.00 | 52 | 1013.1 |
| 20260509014011 | 45 | 5 | 3.0 | 5.0 | 0.00 | 0.00 | 0.00 | 51 | 1012.9 |
| 20260509013514 | 45 | 355 | 3.0 | 5.0 | 0.00 | 0.00 | 0.00 | 52 | 1012.8 |
| 20260509013032 | 44 | 355 | 4.0 | 5.0 | 0.00 | 0.00 | 0.00 | 55 | 1012.7 |
| 20260509012511 | 44 | 360 | 3.0 | 5.0 | 0.00 | 0.00 | 0.00 | 54 | 1012.7 |
| 20260509012013 | 44 | 360 | 3.0 | 6.0 | 0.00 | 0.00 | 0.00 | 54 | 1012.5 |
| 20260509011531 | 45 | 341 | 3.0 | 6.0 | 0.00 | 0.00 | 0.00 | 54 | 1012.5 |
| 20260509011015 | 45 | 326 | 3.0 | 6.0 | 0.00 | 0.00 | 0.00 | 51 | 1012.5 |
| 20260509010512 | 45 | 331 | 4.0 | 6.0 | 0.00 | 0.00 | 0.00 | 50 | 1012.4 |
| 20260509010035 | 45 | 327 | 3.0 | 5.0 | 0.00 | 0.00 | 0.00 | 50 | 1012.3 |
| 20260509005514 | 45 | 332 | 3.0 | 6.0 | 0.00 | 0.00 | 0.00 | 51 | 1012.2 |
| 20260509005012 | 46 | 325 | 4.0 | 6.0 | 0.00 | 0.00 | 0.00 | 49 | 1012.1 |
| 20260509004532 | 46 | 319 | 4.0 | 6.0 | 0.00 | 0.00 | 0.00 | 49 | 1012.0 |
| 20260509004010 | 46 | 319 | 4.0 | 6.0 | 0.00 | 0.00 | 0.00 | 49 | 1011.9 |
| 20260509003512 | 46 | 325 | 4.0 | 6.0 | 0.00 | 0.00 | 0.00 | 48 | 1011.8 |
| 20260509003033 | 47 | 330 | 4.0 | 6.0 | 0.00 | 0.00 | 0.00 | 49 | 1011.7 |
| 20260509002512 | 47 | 327 | 4.0 | 8.0 | 0.00 | 0.00 | 0.00 | 48 | 1011.7 |
| 20260509002011 | 47 | 344 | 4.0 | 8.0 | 0.00 | 0.00 | 0.00 | 48 | 1011.6 |
| 20260509001533 | 48 | 325 | 4.0 | 8.0 | 0.00 | 0.00 | 0.00 | 46 | 1011.6 |
| 20260509001012 | 48 | 324 | 3.0 | 11.0 | 0.00 | 0.00 | 0.00 | 45 | 1011.6 |
| 20260509000512 | 48 | 310 | 4.0 | 11.0 | 0.00 | 0.00 | 0.00 | 45 | 1011.5 |
| 20260509000031 | 49 | 321 | 4.0 | 10.0 | 0.00 | 0.00 | 0.00 | 45 | 1011.5 |
| 20260508235511 | 49 | 319 | 4.0 | 10.0 | 0.00 | 0.00 | 0.00 | 44 | 1011.4 |
| 20260508235012 | 49 | 329 | 5.0 | 11.0 | 0.00 | 0.00 | 0.00 | 44 | 1011.4 |
| 20260508234531 | 49 | 319 | 4.0 | 11.0 | 0.00 | 0.00 | 0.00 | 44 | 1011.4 |
| 20260508234010 | 50 | 304 | 6.0 | 11.0 | 0.00 | 0.00 | 0.00 | 44 | 1011.3 |
| 20260508233512 | 50 | 331 | 5.0 | 11.0 | 0.00 | 0.00 | 0.00 | 42 | 1011.2 |
| 20260508233035 | 50 | 297 | 3.0 | 14.0 | 0.00 | 0.00 | 0.00 | 43 | 1011.1 |
| 20260508232512 | 51 | 321 | 9.0 | 14.0 | 0.00 | 0.00 | 0.00 | 41 | 1011.0 |
| 20260508232011 | 51 | 311 | 6.0 | 16.0 | 0.00 | 0.00 | 0.00 | 42 | 1010.9 |
| 20260508231530 | 51 | 296 | 8.0 | 17.0 | 0.00 | 0.00 | 0.00 | 42 | 1010.9 |
| 20260508231013 | 51 | 317 | 10.0 | 19.0 | 0.00 | 0.00 | 0.00 | 40 | 1010.9 |
| 20260508230514 | 52 | 313 | 11.0 | 22.0 | 0.00 | 0.00 | 0.00 | 40 | 1010.9 |
| 20260508230031 | 52 | 314 | 11.0 | 22.0 | 0.00 | 0.00 | 0.00 | 40 | 1010.8 |
| 20260508225512 | 52 | 319 | 8.0 | 17.0 | 0.00 | 0.00 | 0.00 | 40 | 1010.8 |
| 20260508225016 | 53 | 345 | 8.0 | 17.0 | 0.00 | 0.00 | 0.00 | 40 | 1010.8 |
| 20260508224535 | 53 | 313 | 9.0 | 17.0 | 0.00 | 0.00 | 0.00 | 40 | 1010.8 |
| 20260508224016 | 53 | 298 | 7.0 | 18.0 | 0.00 | 0.00 | 0.00 | 42 | 1010.8 |
| 20260508223515 | 53 | 294 | 8.0 | 18.0 | 0.00 | 0.00 | 0.00 | 40 | 1010.8 |
| 20260508223033 | 53 | 277 | 6.0 | 25.0 | 0.00 | 0.00 | 0.00 | 39 | 1010.6 |
| 20260508222514 | 53 | 301 | 10.0 | 26.0 | 0.00 | 0.00 | 0.00 | 39 | 1010.5 |
| 20260508222012 | 53 | 315 | 10.0 | 26.0 | 0.00 | 0.00 | 0.00 | 40 | 1010.6 |
| 20260508221528 | 53 | 342 | 4.0 | 14.0 | 0.00 | 0.00 | 0.00 | 40 | 1010.4 |
| 20260508221012 | 53 | 296 | 9.0 | 19.0 | 0.00 | 0.00 | 0.00 | 41 | 1010.6 |
| 20260508220511 | 54 | 286 | 6.0 | 19.0 | 0.00 | 0.00 | 0.00 | 39 | 1010.4 |
| 20260508220030 | 54 | 268 | 8.0 | 19.0 | 0.00 | 0.00 | 0.00 | 37 | 1010.4 |
| 20260508215515 | 54 | 273 | 8.0 | 22.0 | 0.00 | 0.00 | 0.00 | 40 | 1010.4 |
| 20260508215010 | 53 | 322 | 9.0 | 24.0 | 0.00 | 0.00 | 0.00 | 39 | 1010.3 |
| 20260508214534 | 53 | 283 | 11.0 | 24.0 | 0.00 | 0.00 | 0.00 | 40 | 1010.4 |
| 20260508214012 | 54 | 351 | 13.0 | 20.0 | 0.00 | 0.00 | 0.00 | 38 | 1010.2 |
| 20260508213510 | 54 | 318 | 9.0 | 19.0 | 0.00 | 0.00 | 0.00 | 39 | 1010.3 |
| 20260508213032 | 54 | 293 | 8.0 | 18.0 | 0.00 | 0.00 | 0.00 | 40 | 1010.3 |
| 20260508212512 | 54 | 285 | 9.0 | 21.0 | 0.00 | 0.00 | 0.00 | 39 | 1010.3 |
| 20260508212014 | 54 | 331 | 11.0 | 21.0 | 0.00 | 0.00 | 0.00 | 39 | 1010.2 |
| 20260508211531 | 54 | 298 | 10.0 | 22.0 | 0.00 | 0.00 | 0.00 | 41 | 1010.2 |
| 20260508211012 | 54 | 297 | 8.0 | 22.0 | 0.00 | 0.00 | 0.00 | 39 | 1010.1 |
| 20260508210511 | 54 | 309 | 13.0 | 22.0 | 0.00 | 0.00 | 0.00 | 39 | 1010.1 |
| 20260508210034 | 55 | 297 | 10.0 | 20.0 | 0.00 | 0.00 | 0.00 | 38 | 1009.9 |
| 20260508205512 | 55 | 272 | 9.0 | 19.0 | 0.00 | 0.00 | 0.00 | 40 | 1010.0 |
| 20260508205012 | 54 | 293 | 8.0 | 15.0 | 0.00 | 0.00 | 0.00 | 39 | 1010.0 |
| 20260508204536 | 54 | 281 | 8.0 | 23.0 | 0.00 | 0.00 | 0.00 | 39 | 1009.9 |
| 20260508204011 | 54 | 297 | 9.0 | 25.0 | 0.00 | 0.00 | 0.00 | 38 | 1009.9 |
| 20260508203510 | 55 | 290 | 13.0 | 25.0 | 0.00 | 0.00 | 0.00 | 40 | 1009.8 |
| 20260508203034 | 54 | 341 | 7.0 | 23.0 | 0.00 | 0.00 | 0.00 | 44 | 1009.8 |
| 20260508202513 | 55 | 334 | 12.0 | 23.0 | 0.00 | 0.00 | 0.00 | 38 | 1009.8 |
| 20260508202015 | 55 | 301 | 14.0 | 23.0 | 0.00 | 0.00 | 0.00 | 37 | 1009.7 |
| 20260508201531 | 55 | 316 | 10.0 | 23.0 | 0.00 | 0.00 | 0.00 | 40 | 1009.6 |
| 20260508201011 | 55 | 313 | 12.0 | 25.0 | 0.00 | 0.00 | 0.00 | 40 | 1009.6 |
| 20260508200513 | 55 | 288 | 11.0 | 25.0 | 0.00 | 0.00 | 0.00 | 38 | 1009.7 |
| 20260508200032 | 55 | 311 | 9.0 | 24.0 | 0.00 | 0.00 | 0.00 | 38 | 1009.6 |
| 20260508195511 | 55 | 329 | 14.0 | 29.0 | 0.00 | 0.00 | 0.00 | 39 | 1009.6 |
| 20260508195011 | 56 | 261 | 16.0 | 29.0 | 0.00 | 0.00 | 0.00 | 38 | 1009.6 |
| 20260508194528 | 56 | 319 | 12.0 | 26.0 | 0.00 | 0.00 | 0.00 | 41 | 1009.6 |
| 20260508194012 | 56 | 271 | 13.0 | 26.0 | 0.00 | 0.00 | 0.00 | 40 | 1009.4 |
| 20260508193512 | 55 | 279 | 14.0 | 27.0 | 0.00 | 0.00 | 0.00 | 41 | 1009.5 |
| 20260508193029 | 55 | 270 | 14.0 | 27.0 | 0.00 | 0.00 | 0.00 | 39 | 1009.5 |
| 20260508192511 | 56 | 274 | 13.0 | 25.0 | 0.00 | 0.00 | 0.00 | 42 | 1009.5 |
| 20260508192015 | 54 | 319 | 13.0 | 25.0 | 0.00 | 0.00 | 0.00 | 45 | 1009.3 |
| 20260508191535 | 54 | 246 | 8.0 | 22.0 | 0.00 | 0.00 | 0.00 | 45 | 1009.5 |
| 20260508191012 | 53 | 303 | 11.0 | 24.0 | 0.00 | 0.00 | 0.00 | 44 | 1009.4 |
| 20260508190514 | 53 | 302 | 11.0 | 27.0 | 0.00 | 0.00 | 0.00 | 44 | 1009.4 |
| 20260508190035 | 54 | 320 | 12.0 | 30.0 | 0.00 | 0.00 | 0.00 | 44 | 1009.3 |
| 20260508185514 | 54 | 293 | 15.0 | 30.0 | 0.00 | 0.00 | 0.00 | 43 | 1009.4 |
| 20260508185013 | 54 | 321 | 14.0 | 27.0 | 0.00 | 0.00 | 0.00 | 41 | 1009.2 |
| 20260508184530 | 55 | 292 | 12.0 | 27.0 | 0.00 | 0.00 | 0.00 | 44 | 1009.3 |
| 20260508184010 | 55 | 320 | 14.0 | 27.0 | 0.00 | 0.00 | 0.00 | 41 | 1009.2 |
| 20260508183511 | 55 | 259 | 11.0 | 27.0 | 0.00 | 0.00 | 0.00 | 38 | 1009.2 |
| 20260508183029 | 56 | 258 | 14.0 | 27.0 | 0.00 | 0.00 | 0.00 | 38 | 1009.1 |
| 20260508182514 | 56 | 291 | 10.0 | 25.0 | 0.00 | 0.00 | 0.00 | 41 | 1009.2 |
| 20260508182015 | 56 | 307 | 12.0 | 25.0 | 0.00 | 0.00 | 0.00 | 38 | 1009.0 |
| 20260508181540 | 56 | 244 | 7.0 | 24.0 | 0.00 | 0.00 | 0.00 | 41 | 1009.1 |
| 20260508181013 | 55 | 325 | 15.0 | 24.0 | 0.00 | 0.00 | 0.00 | 37 | 1009.1 |
| 20260508180514 | 55 | 254 | 14.0 | 24.0 | 0.00 | 0.00 | 0.00 | 37 | 1009.0 |
| 20260508180032 | 56 | 350 | 10.0 | 21.0 | 0.00 | 0.00 | 0.00 | 36 | 1009.1 |
| 20260508175513 | 56 | 254 | 11.0 | 22.0 | 0.00 | 0.00 | 0.00 | 35 | 1009.0 |
| 20260508175017 | 56 | 310 | 9.0 | 23.0 | 0.00 | 0.00 | 0.00 | 37 | 1009.0 |
| 20260508174537 | 55 | 269 | 8.0 | 23.0 | 0.00 | 0.00 | 0.00 | 37 | 1009.0 |
| 20260508174014 | 56 | 273 | 9.0 | 17.0 | 0.00 | 0.00 | 0.00 | 34 | 1009.0 |
| 20260508173513 | 56 | 250 | 7.0 | 20.0 | 0.00 | 0.00 | 0.00 | 33 | 1009.0 |
| 20260508173030 | 56 | 265 | 10.0 | 26.0 | 0.00 | 0.00 | 0.00 | 36 | 1009.0 |
| 20260508172515 | 56 | 279 | 14.0 | 27.0 | 0.00 | 0.00 | 0.00 | 34 | 1009.0 |
| 20260508172011 | 55 | 259 | 15.0 | 27.0 | 0.00 | 0.00 | 0.00 | 34 | 1009.0 |
| 20260508171535 | 56 | 223 | 9.0 | 23.0 | 0.00 | 0.00 | 0.00 | 35 | 1008.9 |
| 20260508171022 | 56 | 259 | 10.0 | 23.0 | 0.00 | 0.00 | 0.00 | 34 | 1008.9 |
| 20260508170513 | 57 | 256 | 12.0 | 23.0 | 0.00 | 0.00 | 0.00 | 35 | 1008.9 |
| 20260508170030 | 57 | 254 | 10.0 | 23.0 | 0.00 | 0.00 | 0.00 | 33 | 1008.9 |
| 20260508165512 | 57 | 250 | 7.0 | 23.0 | 0.00 | 0.00 | 0.00 | 38 | 1008.9 |
| 20260508165013 | 57 | 324 | 10.0 | 22.0 | 0.00 | 0.00 | 0.00 | 34 | 1008.9 |
| 20260508164532 | 56 | 293 | 6.0 | 27.0 | 0.00 | 0.00 | 0.00 | 38 | 1008.9 |
| 20260508164012 | 56 | 258 | 14.0 | 27.0 | 0.00 | 0.00 | 0.00 | 35 | 1009.0 |
| 20260508163511 | 56 | 271 | 11.0 | 29.0 | 0.00 | 0.00 | 0.00 | 35 | 1009.0 |
| 20260508163029 | 56 | 302 | 12.0 | 29.0 | 0.00 | 0.00 | 0.00 | 36 | 1009.2 |
| 20260508162516 | 55 | 281 | 12.0 | 24.0 | 0.00 | 0.00 | 0.00 | 41 | 1009.0 |
| 20260508162018 | 54 | 318 | 14.0 | 23.0 | 0.00 | 0.00 | 0.00 | 38 | 1009.1 |
| 20260508161545 | 54 | 272 | 13.0 | 22.0 | 0.00 | 0.00 | 0.00 | 36 | 1009.1 |
| 20260508161011 | 55 | 288 | 10.0 | 27.0 | 0.00 | 0.00 | 0.00 | 38 | 1009.2 |
| 20260508160509 | 55 | 220 | 11.0 | 27.0 | 0.00 | 0.00 | 0.00 | 37 | 1009.2 |
| 20260508160030 | 56 | 277 | 14.0 | 27.0 | 0.00 | 0.00 | 0.00 | 37 | 1009.3 |
| 20260508155513 | 55 | 292 | 11.0 | 23.0 | 0.00 | 0.00 | 0.00 | 35 | 1009.2 |
| 20260508155012 | 55 | 360 | 9.0 | 19.0 | 0.00 | 0.00 | 0.00 | 41 | 1009.3 |
| 20260508154530 | 54 | 307 | 6.0 | 18.0 | 0.00 | 0.00 | 0.00 | 43 | 1009.3 |
| 20260508154014 | 53 | 339 | 11.0 | 24.0 | 0.00 | 0.00 | 0.00 | 38 | 1009.3 |
| 20260508153511 | 54 | 285 | 12.0 | 24.0 | 0.00 | 0.00 | 0.00 | 39 | 1009.4 |
| 20260508153050 | 54 | 289 | 9.0 | 22.0 | 0.00 | 0.00 | 0.00 | 41 | 1009.5 |
| 20260508152511 | 54 | 289 | 14.0 | 25.0 | 0.00 | 0.00 | 0.00 | 40 | 1009.5 |
| 20260508152012 | 54 | 265 | 11.0 | 25.0 | 0.00 | 0.00 | 0.00 | 42 | 1009.5 |
| 20260508151533 | 54 | 288 | 11.0 | 25.0 | 0.00 | 0.00 | 0.00 | 44 | 1009.5 |
| 20260508151016 | 54 | 298 | 13.0 | 22.0 | 0.00 | 0.00 | 0.00 | 46 | 1009.6 |
| 20260508150517 | 54 | 288 | 13.0 | 23.0 | 0.00 | 0.00 | 0.00 | 43 | 1009.6 |
| 20260508150031 | 53 | 279 | 11.0 | 28.0 | 0.00 | 0.00 | 0.00 | 45 | 1009.7 |
| 20260508145514 | 53 | 288 | 14.0 | 28.0 | 0.00 | 0.00 | 0.00 | 45 | 1009.6 |
| 20260508145012 | 53 | 276 | 12.0 | 23.0 | 0.00 | 0.00 | 0.00 | 44 | 1009.7 |
| 20260508144530 | 53 | 286 | 13.0 | 23.0 | 0.00 | 0.00 | 0.00 | 45 | 1009.7 |
| 20260508144012 | 53 | 257 | 13.0 | 25.0 | 0.00 | 0.00 | 0.00 | 44 | 1009.7 |
| 20260508143512 | 53 | 293 | 13.0 | 25.0 | 0.00 | 0.00 | 0.00 | 43 | 1009.6 |
| 20260508143049 | 53 | 293 | 12.0 | 27.0 | 0.00 | 0.00 | 0.00 | 43 | 1009.6 |
| 20260508142512 | 53 | 298 | 16.0 | 27.0 | 0.00 | 0.00 | 0.00 | 44 | 1009.7 |
| 20260508142011 | 53 | 296 | 11.0 | 23.0 | 0.00 | 0.00 | 0.00 | 46 | 1009.7 |
| 20260508141531 | 53 | 317 | 13.0 | 23.0 | 0.00 | 0.00 | 0.00 | 46 | 1009.7 |
| 20260508141011 | 53 | 313 | 9.0 | 22.0 | 0.00 | 0.00 | 0.00 | 45 | 1009.7 |
| 20260508140513 | 53 | 298 | 13.0 | 22.0 | 0.00 | 0.00 | 0.00 | 46 | 1009.7 |
| 20260508140032 | 53 | 295 | 12.0 | 23.0 | 0.00 | 0.00 | 0.00 | 48 | 1009.7 |
| 20260508135514 | 53 | 261 | 8.0 | 23.0 | 0.00 | 0.00 | 0.00 | 46 | 1009.7 |
| 20260508135011 | 53 | 225 | 9.0 | 23.0 | 0.00 | 0.00 | 0.00 | 49 | 1009.8 |
| 20260508134536 | 53 | 304 | 13.0 | 23.0 | 0.00 | 0.00 | 0.00 | 49 | 1009.9 |
| 20260508134013 | 52 | 325 | 7.0 | 23.0 | 0.00 | 0.00 | 0.00 | 51 | 1009.9 |
| 20260508133513 | 52 | 300 | 9.0 | 22.0 | 0.00 | 0.00 | 0.00 | 51 | 1009.9 |
| 20260508133030 | 52 | 280 | 10.0 | 18.0 | 0.00 | 0.00 | 0.00 | 48 | 1010.0 |
| 20260508132512 | 51 | 281 | 10.0 | 18.0 | 0.00 | 0.00 | 0.00 | 52 | 1010.1 |
| 20260508132013 | 51 | 267 | 8.0 | 18.0 | 0.00 | 0.00 | 0.00 | 54 | 1010.1 |
| 20260508131528 | 51 | 316 | 9.0 | 18.0 | 0.00 | 0.00 | 0.00 | 53 | 1010.1 |
| 20260508131011 | 51 | 317 | 7.0 | 15.0 | 0.00 | 0.00 | 0.00 | 52 | 1010.2 |
| 20260508130512 | 50 | 264 | 6.0 | 14.0 | 0.00 | 0.00 | 0.00 | 54 | 1010.1 |
| 20260508130030 | 50 | 294 | 9.0 | 16.0 | 0.00 | 0.00 | 0.00 | 54 | 1010.2 |
| 20260508125512 | 50 | 290 | 8.0 | 16.0 | 0.00 | 0.00 | 0.00 | 54 | 1010.1 |
| 20260508125014 | 50 | 303 | 8.0 | 16.0 | 0.00 | 0.00 | 0.00 | 54 | 1010.1 |
| 20260508124533 | 49 | 272 | 6.0 | 14.0 | 0.00 | 0.00 | 0.00 | 56 | 1010.1 |
| 20260508124014 | 49 | 285 | 8.0 | 16.0 | 0.00 | 0.00 | 0.00 | 56 | 1010.1 |
| 20260508123513 | 48 | 262 | 10.0 | 16.0 | 0.00 | 0.00 | 0.00 | 56 | 1010.2 |
| 20260508123031 | 48 | 290 | 9.0 | 15.0 | 0.00 | 0.00 | 0.00 | 56 | 1010.1 |
| 20260508122511 | 48 | 278 | 9.0 | 15.0 | 0.00 | 0.00 | 0.00 | 56 | 1010.1 |
| 20260508122013 | 47 | 231 | 6.0 | 14.0 | 0.00 | 0.00 | 0.00 | 58 | 1010.1 |
| 20260508121532 | 47 | 315 | 8.0 | 14.0 | 0.00 | 0.00 | 0.00 | 58 | 1010.1 |
| 20260508121012 | 47 | 298 | 5.0 | 14.0 | 0.00 | 0.00 | 0.00 | 59 | 1010.2 |
| 20260508120511 | 46 | 302 | 8.0 | 14.0 | 0.00 | 0.00 | 0.00 | 59 | 1010.1 |
| 20260508120031 | 46 | 285 | 6.0 | 12.0 | 0.00 | 0.00 | 0.00 | 60 | 1010.1 |
| 20260508115512 | 46 | 263 | 6.0 | 13.0 | 0.00 | 0.00 | 0.00 | 61 | 1010.1 |
| 20260508115012 | 45 | 287 | 8.0 | 14.0 | 0.00 | 0.00 | 0.00 | 64 | 1010.1 |
| 20260508114530 | 44 | 290 | 8.0 | 14.0 | 0.00 | 0.00 | 0.00 | 65 | 1010.1 |
| 20260508114013 | 44 | 293 | 6.0 | 12.0 | 0.00 | 0.00 | 0.00 | 65 | 1010.1 |
| 20260508113511 | 43 | 313 | 5.0 | 11.0 | 0.00 | 0.00 | 0.00 | 65 | 1010.0 |
| 20260508113034 | 42 | 277 | 6.0 | 11.0 | 0.00 | 0.00 | 0.00 | 66 | 1010.0 |
| 20260508112511 | 42 | 268 | 5.0 | 11.0 | 0.00 | 0.00 | 0.00 | 66 | 1010.0 |
| 20260508112012 | 41 | 254 | 4.0 | 9.0 | 0.00 | 0.00 | 0.00 | 68 | 1010.0 |
| 20260508111531 | 41 | 271 | 4.0 | 9.0 | 0.00 | 0.00 | 0.00 | 68 | 1010.0 |
| 20260508111011 | 40 | 290 | 3.0 | 8.0 | 0.00 | 0.00 | 0.00 | 70 | 1010.0 |
| 20260508110512 | 40 | 281 | 3.0 | 8.0 | 0.00 | 0.00 | 0.00 | 71 | 1009.9 |
| 20260508110034 | 40 | 296 | 3.0 | 8.0 | 0.00 | 0.00 | 0.00 | 70 | 1009.9 |
| 20260508105511 | 39 | 274 | 3.0 | 8.0 | 0.00 | 0.00 | 0.00 | 70 | 1009.8 |
| 20260508105013 | 39 | 293 | 3.0 | 8.0 | 0.00 | 0.00 | 0.00 | 69 | 1009.8 |
| 20260508104530 | 39 | 300 | 4.0 | 8.0 | 0.00 | 0.00 | 0.00 | 69 | 1009.8 |
| 20260508104012 | 39 | 306 | 3.0 | 11.0 | 0.00 | 0.00 | 0.00 | 68 | 1009.8 |
| 20260508103513 | 39 | 291 | 4.0 | 11.0 | 0.00 | 0.00 | 0.00 | 70 | 1009.8 |
| 20260508103039 | 38 | 302 | 5.0 | 11.0 | 0.00 | 0.00 | 0.00 | 70 | 1009.7 |
| 20260508102515 | 38 | 275 | 5.0 | 10.0 | 0.00 | 0.00 | 0.00 | 70 | 1009.6 |
| 20260508102011 | 38 | 271 | 5.0 | 10.0 | 0.00 | 0.00 | 0.00 | 71 | 1009.5 |
| 20260508101530 | 38 | 292 | 5.0 | 10.0 | 0.00 | 0.00 | 0.00 | 71 | 1009.6 |
| 20260508101012 | 38 | 360 | 6.0 | 10.0 | 0.00 | 0.00 | 0.00 | 71 | 1009.6 |
| 20260508100512 | 38 | 295 | 6.0 | 9.0 | 0.00 | 0.00 | 0.00 | 72 | 1009.4 |
| 20260508100037 | 38 | 298 | 5.0 | 10.0 | 0.00 | 0.00 | 0.00 | 72 | 1009.4 |
| 20260508095511 | 38 | 280 | 5.0 | 10.0 | 0.00 | 0.00 | 0.00 | 72 | 1009.3 |
| 20260508095011 | 38 | 286 | 6.0 | 11.0 | 0.00 | 0.00 | 0.00 | 73 | 1009.2 |
| 20260508094533 | 38 | 304 | 5.0 | 11.0 | 0.00 | 0.00 | 0.00 | 73 | 1009.2 |
| 20260508094013 | 38 | 288 | 6.0 | 11.0 | 0.00 | 0.00 | 0.00 | 73 | 1009.1 |
| 20260508093512 | 38 | 291 | 6.0 | 12.0 | 0.00 | 0.00 | 0.00 | 72 | 1009.1 |
| 20260508093036 | 38 | 308 | 6.0 | 12.0 | 0.00 | 0.00 | 0.00 | 72 | 1009.1 |
| 20260508092511 | 38 | 300 | 6.0 | 11.0 | 0.00 | 0.00 | 0.00 | 72 | 1009.0 |
| 20260508092011 | 38 | 290 | 6.0 | 10.0 | 0.00 | 0.00 | 0.00 | 72 | 1009.0 |
| 20260508091530 | 38 | 302 | 6.0 | 10.0 | 0.00 | 0.00 | 0.00 | 72 | 1009.0 |
| 20260508091014 | 38 | 281 | 3.0 | 10.0 | 0.00 | 0.00 | 0.00 | 72 | 1009.0 |
| 20260508090511 | 38 | 313 | 6.0 | 11.0 | 0.00 | 0.00 | 0.00 | 72 | 1008.9 |
| 20260508090036 | 38 | 297 | 5.0 | 11.0 | 0.00 | 0.00 | 0.00 | 72 | 1008.8 |
| 20260508085510 | 38 | 295 | 7.0 | 11.0 | 0.00 | 0.00 | 0.00 | 72 | 1008.7 |
| 20260508085011 | 38 | 306 | 6.0 | 11.0 | 0.00 | 0.00 | 0.00 | 72 | 1008.7 |
| 20260508084532 | 39 | 281 | 6.0 | 10.0 | 0.00 | 0.00 | 0.00 | 71 | 1008.7 |
| 20260508084013 | 39 | 286 | 5.0 | 11.0 | 0.00 | 0.00 | 0.00 | 71 | 1008.5 |
| 20260508083515 | 39 | 290 | 5.0 | 13.0 | 0.00 | 0.00 | 0.00 | 71 | 1008.4 |
| 20260508083029 | 38 | 313 | 7.0 | 13.0 | 0.00 | 0.00 | 0.00 | 72 | 1008.3 |
| 20260508082510 | 38 | 310 | 7.0 | 12.0 | 0.00 | 0.00 | 0.00 | 72 | 1008.3 |
| 20260508082012 | 38 | 319 | 5.0 | 10.0 | 0.00 | 0.00 | 0.00 | 73 | 1008.3 |
| 20260508081528 | 38 | 306 | 6.0 | 12.0 | 0.00 | 0.00 | 0.00 | 72 | 1008.5 |
| 20260508081011 | 39 | 309 | 6.0 | 12.0 | 0.00 | 0.00 | 0.00 | 72 | 1008.4 |
| 20260508080513 | 39 | 305 | 7.0 | 12.0 | 0.00 | 0.00 | 0.00 | 71 | 1008.4 |
| 20260508080028 | 39 | 290 | 6.0 | 11.0 | 0.00 | 0.00 | 0.00 | 71 | 1008.3 |
| 20260508075510 | 39 | 340 | 6.0 | 11.0 | 0.00 | 0.00 | 0.00 | 70 | 1008.3 |
| 20260508075010 | 39 | 303 | 6.0 | 11.0 | 0.00 | 0.00 | 0.00 | 68 | 1008.3 |
| 20260508074534 | 39 | 327 | 6.0 | 11.0 | 0.00 | 0.00 | 0.00 | 67 | 1008.3 |
| 20260508074013 | 40 | 298 | 6.0 | 10.0 | 0.00 | 0.00 | 0.00 | 66 | 1008.2 |
| 20260508073510 | 40 | 302 | 6.0 | 9.0 | 0.00 | 0.00 | 0.00 | 65 | 1008.2 |
| 20260508073030 | 40 | 309 | 5.0 | 9.0 | 0.00 | 0.00 | 0.00 | 64 | 1008.1 |
| 20260508072512 | 40 | 310 | 5.0 | 9.0 | 0.00 | 0.00 | 0.00 | 64 | 1008.1 |
| 20260508072017 | 40 | 310 | 5.0 | 10.0 | 0.00 | 0.00 | 0.00 | 64 | 1008.1 |
| 20260508071535 | 40 | 323 | 6.0 | 10.0 | 0.00 | 0.00 | 0.00 | 64 | 1008.2 |
| 20260508071011 | 40 | 325 | 6.0 | 10.0 | 0.00 | 0.00 | 0.00 | 63 | 1008.2 |
| 20260508070516 | 40 | 312 | 7.0 | 10.0 | 0.00 | 0.00 | 0.00 | 63 | 1008.2 |
| 20260508070031 | 40 | 306 | 7.0 | 10.0 | 0.00 | 0.00 | 0.00 | 63 | 1008.2 |
| 20260508065510 | 40 | 307 | 6.0 | 10.0 | 0.00 | 0.00 | 0.00 | 64 | 1008.2 |
| 20260508065017 | 40 | 325 | 7.0 | 10.0 | 0.00 | 0.00 | 0.00 | 63 | 1008.2 |
| 20260508064532 | 40 | 310 | 6.0 | 9.0 | 0.00 | 0.00 | 0.00 | 64 | 1008.2 |
| 20260508064015 | 40 | 313 | 6.0 | 9.0 | 0.00 | 0.00 | 0.00 | 64 | 1008.3 |
| 20260508063511 | 40 | 308 | 5.0 | 9.0 | 0.00 | 0.00 | 0.00 | 64 | 1008.4 |
| 20260508063031 | 40 | 314 | 4.0 | 8.0 | 0.00 | 0.00 | 0.00 | 64 | 1008.5 |
| 20260508062513 | 40 | 310 | 4.0 | 8.0 | 0.00 | 0.00 | 0.00 | 64 | 1008.6 |
| 20260508062013 | 40 | 305 | 4.0 | 8.0 | 0.00 | 0.00 | 0.00 | 64 | 1008.5 |
| 20260508061533 | 41 | 360 | 5.0 | 8.0 | 0.00 | 0.00 | 0.00 | 63 | 1008.5 |
| 20260508061013 | 41 | 360 | 4.0 | 8.0 | 0.00 | 0.00 | 0.00 | 63 | 1008.6 |
| 20260508060513 | 41 | 360 | 5.0 | 8.0 | 0.00 | 0.00 | 0.00 | 63 | 1008.7 |
| 20260508060041 | 41 | 360 | 4.0 | 8.0 | 0.00 | 0.00 | 0.00 | 63 | 1008.7 |
| 20260508055511 | 41 | 360 | 4.0 | 9.0 | 0.00 | 0.01 | 0.00 | 63 | 1008.8 |
| 20260508055011 | 41 | 360 | 4.0 | 9.0 | 0.00 | 0.01 | 0.00 | 63 | 1008.9 |
| 20260508054608 | 41 | 360 | 5.0 | 9.0 | 0.00 | 0.01 | 0.00 | 63 | 1008.9 |
| 20260508054012 | 41 | 360 | 4.0 | 9.0 | 0.00 | 0.01 | 0.00 | 63 | 1008.9 |